Regional Weather Roundup
Issued by NWS

Home | Current Version | Previous Version | Graphics & Text | Print | Product List | Glossary On
Versions: 1 2 3 4 5 6 7 8 9 10 11 12 13 14 15 16 17 18 19 20 21 22 23 24 25 26 27 28 29 30 31 32 33 34 35 36 37 38 39 40 41 42 43 44 45 46 47 48 49 50
000
ASUS43 KMKX 042321
RWRWI

WISCONSIN REGIONAL WEATHER ROUNDUP
NATIONAL WEATHER SERVICE MILWAUKEE/SULLIVAN WI
500 PM CST SUN DEC 04 2016

NOTE: "FAIR" INDICATES FEW OR NO CLOUDS BELOW 12,000 FEET WITH NO
SIGNIFICANT WEATHER AND/OR OBSTRUCTIONS TO VISIBILITY.

WIZ001-002-006>008-014>016-023>028-050000-
NORTHWEST WISCONSIN

CITY           SKY/WX    TMP DP  RH WIND       PRES   REMARKS
SUPERIOR ARPT  CLOUDY    33  32  96 S6        29.72F WCI  27
ASHLAND        LGT SNOW  32  30  92 S5        29.75F FOG     WCI  27
HAYWARD        FLURRIES  32  30  92 S9        29.73F WCI  24
SIREN          MIX PCPN  33  32  96 S6        29.73S WCI  27
CUMBERLAND     CLOUDY    32  32 100 S9        29.73F WCI  24
RICE LAKE      CLOUDY    33  32  98 S8        29.76S FOG     WCI  25
CHETEK         CLOUDY    32  32 100 S5        29.76S FOG     WCI  27
LADYSMITH      CLOUDY    32  31  96 S7        29.77F FOG     WCI  26
EAU CLAIRE     CLOUDY    33  32  96 S8        29.77F WCI  26
MENOMONIE      CLOUDY    33  33 100 S6        29.77F WCI  28
NEW RICHMOND   CLOUDY    33  33  99 S8        29.75R WCI  26
OSCEOLA        CLOUDY    34  34 100 S6        29.77S WCI  29
$$

WIZ003>005-009-010-017-018-050000-
NORTH CENTRAL WISCONSIN

CITY           SKY/WX    TMP DP  RH WIND       PRES   REMARKS
MANITOWISH WTR FLURRIES  29  29 100 S9        29.74F WCI  20
ARBOR VITAE    LGT SNOW  32  30  92 S8        29.76S WCI  25
WOODRUFF       LGT SNOW  32  30  92 S8        29.76S WCI  25
RHINELANDER    LGT SNOW  29  28  96 S8        29.77F FOG     WCI  21
EAGLE RIVER    LGT SNOW  28  28 100 S6        29.76F WCI  22
LAND O LAKES   LGT SNOW  29  28  94 S6        29.78F WCI  23
PHILLIPS       CLOUDY    29  28  96 S8        29.75S WCI  21
TOMAHAWK       LGT SNOW  29  27  93 CALM      29.78F
MEDFORD        CLOUDY    29  27  92 S13       29.77F WCI  19
MERRILL        LGT SNOW  30  29  99 S5        29.80F WCI  25
$$

WIZ029-030-035-036-043>047-050000-
CENTRAL WISCONSIN

CITY           SKY/WX    TMP DP  RH WIND       PRES   REMARKS
WAUSAU         LGT SNOW  29  28  96 S8        29.79F FOG     WCI  21
MOSINEE        LGT SNOW  28  28 100 S8        29.82F WCI  20
MARSHFIELD     CLOUDY    30  28  92 S12       29.79F FOG     WCI  20
STEVENS POINT  MIX PCPN  28  28 100 S7        29.83F WCI  21
WAUPACA        LGT SNOW  33  31  94 CALM      29.86S
WAUTOMA        LGT SNOW  31  29  92 S5        29.86S FOG     WCI  26
WISC RAPIDS    CLOUDY    31  30  96 S7        29.84S FOG     WCI  24
CAMP DOUGLAS   CLOUDY    32  30  93 VRB3      29.84R
$$

WIZ011>013-019>022-031-037>040-048>050-050000-
NORTHEAST WISCONSIN

CITY           SKY/WX    TMP DP  RH WIND       PRES   REMARKS
ANTIGO         LGT SNOW  28  28  98 S9        29.81S WCI  19
SHAWANO        MIX PCPN  32  31  96 CALM      29.86F
OCONTO         CLOUDY    32  31  98 CALM      29.87F
STURGEON BAY   LGT SNOW  31  29  92 CALM      29.88F FOG
GREEN BAY      LGT SNOW  33  32  96 SE6       29.87F VSB 1   WCI  28
MANITOWOC      LGT SNOW  33  31  92 MISG      29.89F FOG
APPLETON       LGT SNOW  30  30 100 S5        29.85F VSB 1   WCI  25
CLINTONVILLE   LGT SNOW  32  30  93 S7        29.85F WCI  26
OSHKOSH        LGT SNOW  31  29  92 S9        29.86F VSB 1   WCI  23
$$

WIZ032>034-041-042-053>061-050000-
SOUTHWEST WISCONSIN

CITY           SKY/WX    TMP DP  RH WIND       PRES   REMARKS
LA CROSSE      CLOUDY    35  33  92 S7        29.84S WCI  29
SPARTA         CLOUDY    32  31  97 S6        29.85R FOG     WCI  26
VIROQUA        CLOUDY    32  32 100 SW6       29.83S WCI  26
BOSCOBEL       CLOUDY    34  31  88 SW5       29.89R FOG     WCI  30
PRAIRIE DU CHI CLOUDY    33  32  95 S5        29.88S FOG     WCI  28
PLATTEVILLE    CLOUDY    32  32 100 SW8       29.88R WCI  24
$$

WIZ056-057-062-063-064-067-068-050000-
SOUTH CENTRAL WISCONSIN

CITY           SKY/WX    TMP DP  RH WIND       PRES   REMARKS
REEDSBURG      CLOUDY    31  31 100 S7        29.86S WCI  24
BARABOO/DELLS  LGT SNOW  30  29  95 S6        29.85F WCI  24
LONE ROCK      CLOUDY    32  29  88 SW5       29.88S FOG     WCI  27
MINERAL POINT  CLOUDY    32  32 100 S8        29.86S FOG     WCI  25
MADISON        LGT SNOW  31  29  92 S8        29.87S FOG     WCI  23
MIDDLETON      CLOUDY    32  32  99 S7        29.87F WCI  26
WATERTOWN      LGT SNOW  31  31 100 S5        29.88S WCI  26
MONROE         CLOUDY    30  30 100 S9        29.86F FOG     WCI  22
JANESVILLE     LGT SNOW  32  32 100 CALM      29.89F
$$

WIZ051-052-058>065-066-070>072-050000-
SOUTHEAST WISCONSIN

CITY           SKY/WX    TMP DP  RH WIND       PRES   REMARKS
MILWAUKEE      LGT SNOW  34  31  88 SW6       29.89S FOG     WCI  29
WAUKESHA       LGT SNOW  28  28 100 S3        29.89F VSB 3/4
MILWAUKEE/TIMM SNOW      32  30  93 SW3       29.90S VSB 1/2
RACINE         LGT SNOW  33  31  92 SW6       29.90F FOG     WCI  28
BURLINGTON     LGT SNOW  31  31 100 CALM      29.88F
KENOSHA        SNOW      32  31  96 S6        29.89F VSB 1/2 WCI  26
FOND DU LAC    LGT SNOW  31  28  89 S6        29.87S FOG     WCI  25
SHEBOYGAN      LGT SNOW  32  31  96 S3        29.87F VSB 1
WEST BEND      LGT SNOW  32  32 100 CALM      29.87F
JUNEAU         LGT SNOW  30  29  97 S6        29.88F VSB 3/4 WCI  24
$$

LSZ147-162-050000-
LAKE SUPERIOR

STATION/POSITION TIME  TEMP    WIND        PRES    WAVE
                       AIR SEA DIR/SP/G            HT/PER
                 (UTC) (F)     (DEG/KT/KT) (MB)    (FT/S)
DEVILS ISLAND    2300   33     170/  7/  9 1008.0F
PORT WING        2240   32     140/  1/  5 1007.5F
SAXON HARBOR     2240   33     160/  3/  6 1007.8F
$$

LMZ867-665-643>646-050000-
LAKE MICHIGAN

STATION/POSITION TIME  TEMP    WIND        PRES    WAVE
                       AIR SEA DIR/SP/G            HT/PER
                 (UTC) (F)     (DEG/KT/KT) (MB)    (FT/S)
CHAMBERS ISLAND  2230   33      CALM  /  2 1011.9F
NORTHPORT PIER   2240   32        CALM     1012.2F
SISTER BAY       2238   32        CALM       N/A
ALGOMA LAKESHORE 2251             CALM       N/A
KEWAUNEE LAKESHO 2254   32        CALM     1011.5F
SHEBOYGAN LAKESH 2300   33     210/  7/  9 1012.3F
PORT WASHINGTON  2240   33     260/  5/  7 1013.2F
MILWAUKEE LAKESH 2300   33     240/  6/  7   N/A
S MID LAKE BUOY  2250   36 48  160/ 10/ 14 1012.4F   3/ 4
KENOSHA   LAKESH 2200   32     220/  3/  4 1012.9
$$

TC  - TEMPERATURE IN CELSIUS
VSB - VISIBILITY IN STATUTE MILES
WCI - WIND CHILL INDEX
HX  - HEAT INDEX




USA.gov is the U.S. government's official web portal to all federal, state and local government web resources and services.